﻿STRMGAGEID,DATE_TIME,AVG_DISCHARGE,STDDEV_DISCHARGE,MIN_DISCHARGE,MAX_DISCHARGE,N_DISCHARGE,TDAILY_DISCHARGE,AVG_TEMP,STDDEV_TEMP,MIN_TEMP,MAX_TEMP,N_TEMP,AVG_COND,STDDEV_COND,MIN_COND,MAX_COND,N_COND
green_f9,11/24/90,26.1,18.6,0.99,57.4,95,2232189,,,,,0,,,,,0
green_f9,11/25/90,48.8,20.3,21.38,80.87,96,4218597,,,,,0,,,,,0
green_f9,11/26/90,65,36.4,24.64,146.23,96,5612265,,,,,0,,,,,0
green_f9,11/27/90,31,9.3,14.78,47.63,96,2680101,,,,,0,,,,,0
green_f9,11/28/90,9.1,3.4,4.93,17.08,96,789759,,,,,0,,,,,0
green_f9,11/29/90,16,13.6,6.09,61.96,96,1384857,,,,,0,,,,,0
green_f9,11/30/90,30.6,10.5,10.59,56.49,96,2643300,,,,,0,,,,,0
green_f9,12/1/90,9.2,4.8,3.82,24.64,96,792567,1.1,1.1,0,4.1,95,,,,,0
green_f9,12/2/90,3.4,2.1,0.99,10.08,96,290844,1.5,1.6,0,4.7,96,30.7,4.1,23.8,40.6,95
green_f9,12/3/90,1.7,0.9,0.4,3.2,96,149193,2.2,2.3,0,6.9,96,34.6,6.2,25.8,45.4,96
green_f9,12/4/90,0.6,0.5,0,1.76,96,50076,3.3,2.8,0,8,96,38.6,0,38.6,38.6,1
green_f9,12/5/90,0.6,0.7,0,2.27,96,51723,4.4,3.2,0.1,9.2,96,,,,,0
green_f9,12/6/90,1.4,1.1,0.2,3.2,96,122211,4.6,3.9,0.1,10.1,96,39,3.5,34.5,45.3,95
green_f9,12/7/90,1.1,0.6,0.31,2.27,96,94797,3.8,3.3,0.1,8.4,96,38.5,3.5,33.2,45.3,96
green_f9,12/8/90,0.4,0.1,0.2,0.65,96,32706,0.3,0,0.3,0.3,1,40,3.4,34.5,45.3,96
green_f9,12/9/90,4.9,5.8,0,13.14,96,422118,5,3.5,0.6,12.2,95,40.7,2.1,35.9,42.6,96
green_f9,12/10/90,5,3.7,0.79,13.71,96,433431,4.3,3.2,0.1,9,96,35,1.9,31.9,37.3,96
green_f9,12/11/90,27.4,22.3,4.59,61.96,96,2369970,6.1,3.5,1.5,11.3,96,31.6,3.5,25.5,35.9,96
green_f9,12/12/90,59.4,5.3,42.62,72.63,96,5134113,3.6,1.6,0.7,6.2,96,26.9,3.9,21.5,33.6,96
green_f9,12/13/90,94.3,37.9,54.68,155.39,96,8145711,4.3,3,0.5,9.6,96,33.7,2.7,25.6,36.3,96
green_f9,12/14/90,70.7,25.9,41.8,133.63,96,6107949,2.9,2.4,0,8.7,96,23.1,1.2,21.5,28.2,96
green_f9,12/15/90,70.2,21.8,45.93,111.85,96,6065064,4.6,2.6,0.8,8.9,96,23.8,0.8,22.2,25.5,96
green_f9,12/16/90,127.9,23.9,91.49,172.37,96,11049228,3.3,2,0.3,8,96,22.2,0.6,21.5,22.9,96
green_f9,12/17/90,118.2,33.4,67.68,167.21,96,10212399,4,2.5,0.3,9.2,96,21.4,0.8,20.2,22.9,96
green_f9,12/18/90,110.9,27.8,68.64,159.42,96,9582111,3.3,2.3,0,8.1,96,22.3,0.7,21.5,22.9,96
green_f9,12/19/90,68.1,36.1,30.24,146.23,96,5883399,2.2,1.8,0,6.6,96,25.5,0.8,22.9,26.9,96
green_f9,12/20/90,91.5,58.4,22.68,174.55,96,7908840,6,3,2,11,96,25.2,0.7,22.9,26.9,96
green_f9,12/21/90,156.2,38.2,108.34,223.17,96,13494825,4.6,2.5,0.8,8.3,96,27.2,1.3,24.5,29.9,96
green_f9,12/22/90,132.5,30.4,90.42,185.7,96,11445462,4,2.6,0.5,8,96,25,1.8,21.9,28.6,96
green_f9,12/23/90,98.3,44.9,41,172.37,96,8494938,4.9,3.3,0.2,10.6,96,25,2.2,23.5,33.6,96
green_f9,12/24/90,39,23.8,17.08,104.89,96,3368817,2,0.9,1,3.8,96,32.5,0.8,30.9,33.6,96
green_f9,12/25/90,87.7,67.8,12.09,176.75,96,7575849,6.1,3.6,0.4,11.9,96,29.5,2.1,27.2,32.6,96
green_f9,12/26/90,184.7,36.7,137.37,246.19,96,15956694,5,2.1,1.8,8.2,96,32.7,2.9,28.2,36.3,96
green_f9,12/27/90,73.3,29.1,47.63,159.91,96,6333363,3.2,1.4,1.2,6,96,28.2,0.5,26.9,29.6,96
green_f9,12/28/90,50.3,20.4,23.98,85.55,96,4348404,4.3,2.7,0.2,9.5,96,27.8,1,24.5,29.6,96
green_f9,12/29/90,80.8,30.9,41,123.69,96,6981228,4.2,2.5,0.5,9.3,96,25.6,1,24.5,27.3,96
green_f9,12/30/90,137,64.2,53.8,223.7,96,11839266,5.2,2.9,0.4,9.8,96,25,0.8,24.5,27.2,96
green_f9,12/31/90,202.4,66.5,123.69,332.04,96,17486424,4.5,2.6,1.3,8.5,96,25.4,2.1,21.9,31.3,96
green_f9,1/1/91,204.7,71.8,110.32,314.32,96,17690076,4.5,2.3,1.3,8.2,96,28.4,3.9,24.5,35.3,96
green_f9,1/2/91,188.6,77.8,92.99,338.13,96,16295184,4.3,2.6,0.6,9.5,96,25.8,1.2,24.5,29.6,96
green_f9,1/3/91,63.6,21.5,41.8,134.45,96,5493339,3.7,2.1,0.2,7.1,96,29.7,0.9,28.2,31.6,96
green_f9,1/4/91,64.5,33.5,28.09,121.11,96,5572260,5,2.4,2.3,10.3,96,29.4,1,28.2,31.6,96
green_f9,1/5/91,111.5,63.7,38.62,211.27,96,9632646,4.7,3.8,0.1,11.9,96,29.9,2,26.9,33.6,96
green_f9,1/6/91,70.3,12,50.26,110.32,96,6071076,4.1,2.3,0.9,7.7,96,33.6,1.1,31.6,36.3,96
green_f9,1/7/91,62.3,47.2,15.91,146.25,96,5386959,5.5,4,0.2,12.3,96,34.7,1.3,33.6,36.3,96
green_f9,1/8/91,129.2,56.3,48.51,215.21,96,11159532,5.2,2.9,0.9,9.7,96,36.4,1.9,33.6,40.3,96
green_f9,1/9/91,50,32.8,14.24,134.45,96,4323204,2,1.2,0.6,4.5,96,40.2,1.1,39.3,42.1,96
green_f9,1/10/91,48.6,42.1,8.69,116.1,96,4199958,5,3.9,0.3,11,96,40.2,2.5,36.7,46.1,96
green_f9,1/11/91,102,52.6,36.3,178.39,96,8808606,5.2,2.8,1.1,9.3,96,37.1,2.1,34.3,39.7,96
green_f9,1/12/91,128.4,36.7,75.8,188.87,96,11093103,4.4,2.7,0.8,8.9,96,40.3,2.2,37,45.1,96
green_f9,1/13/91,75.3,30.2,21.38,123.69,96,6509997,2.2,2.1,0,7.6,96,46.2,3.1,41.7,54.2,96
green_f9,1/14/91,9.9,4.7,3.51,22.03,96,857250,1,0.6,0.3,2.5,96,52.8,0,52.8,52.8,1
green_f9,1/15/91,2.6,1,1.25,4.19,96,228636,2.3,1.9,0.3,6.3,96,,,,,0
green_f9,1/16/91,15.9,17.8,0.31,47.63,96,1370052,4.8,3.7,0.4,10.3,96,49.1,2,46.1,54.2,95
green_f9,1/17/91,50.5,32.9,13.71,101.18,96,4359168,5.1,3.4,0.1,10.3,96,47.1,1.9,43,49.8,96
green_f9,1/18/91,62.3,26.5,33.22,110.32,96,5382765,5,3.1,0.6,10.3,96,45.3,1.8,41.7,47.1,96
green_f9,1/19/91,37.9,14.2,23.33,82.69,96,3276441,2.9,1.8,0.7,7.2,96,47.5,1.1,45.7,49.8,96
green_f9,1/20/91,9.4,5.2,4.59,25.32,96,813762,4.8,2.2,0.6,8.7,96,49.6,1.1,47.1,51.2,96
green_f9,1/21/91,6.5,0,6.51,6.51,1,5859,3.1,0,3.1,3.1,1,51.1,0,51.1,51.1,1
green_f9,12/3/91,0.1,0.3,0,2.27,95,10368,,,,,0,,,,,0
green_f9,12/4/91,0,0.1,0,0.28,96,1008,,,,,0,,,,,0
green_f9,12/5/91,0,0,0,0,96,0,,,,,0,,,,,0
green_f9,12/6/91,0,0,0,0,96,0,,,,,0,,,,,0
green_f9,12/7/91,28.5,22.3,0,60.12,96,2465406,6.3,3.1,1,10.8,95,,,,,0
green_f9,12/8/91,40.2,18.8,16.51,70.62,96,3471345,4.9,3.1,1.4,11.1,96,68.7,10.1,52.8,85.1,95
green_f9,12/9/91,80.6,47.2,25.32,156.39,96,6960573,6.3,3.9,0.8,12,96,48.4,3.7,39.9,55.3,96
green_f9,12/10/91,101.5,28.5,63.83,152.94,96,8767710,5.3,3,1.4,10,96,37.2,4.2,28.8,42.5,96
green_f9,12/11/91,74.2,42.2,23.98,143,96,6412941,6.3,3.4,1.8,11.6,96,27.6,3.4,20,31.7,96
green_f9,12/12/91,218.4,67.7,85.55,350.59,96,18867204,4.1,1.6,2.1,7.2,96,29.2,7.7,18.8,40.6,96
green_f9,12/13/91,100.6,28.6,61.02,188.87,96,8694207,3,1.1,1.2,4.9,96,36.5,1.3,35,39.3,96
green_f9,12/14/91,57.2,30.4,28.8,114.15,96,4942161,4.8,2.8,1,10.3,96,36.4,1.7,33.1,39.3,96
green_f9,12/15/91,133.5,45.8,70.62,203.57,96,11533293,4.7,2.8,1.1,8.9,96,34.5,0.9,33.1,36.3,96
green_f9,12/16/91,51,20.4,26.7,112.22,96,4407516,3.6,2.8,0.7,8.6,96,28.7,4.8,23.2,35.6,96
green_f9,12/17/91,29.5,13.4,14.24,57.4,96,2550024,4.9,3.2,0.8,9.4,96,22.2,2,18.8,25.2,96
green_f9,12/18/91,31.4,9.8,20.11,56.49,96,2711988,4.6,1.5,2.4,7.3,96,20.9,1.1,19.1,22.4,96
green_f9,12/19/91,26.3,4.2,18.26,31.72,96,2271654,4.5,2.3,1.7,10.5,96,24.2,1.1,22.4,26.4,96
green_f9,12/20/91,11.5,5.8,1.98,26.02,96,990027,1.9,1.3,0.6,5.3,96,28.4,1.4,26.4,31.3,96
green_f9,12/21/91,4.7,2,1.76,8.21,96,405999,4.3,3.2,0.7,10.7,96,33.2,1.4,30.8,35.6,96
green_f9,12/22/91,12.3,10.8,3.2,36.3,96,1065978,5.6,3.8,0.6,11.1,96,36.3,1.3,34.1,39.2,96
green_f9,12/23/91,11.6,5.9,4.59,28.09,96,999594,3.6,2.3,0.9,8.2,96,38.3,1.4,36.2,40.6,96
green_f9,12/24/91,8.7,3.3,4.59,16.51,96,755505,2.7,0.7,1.5,3.9,96,41.8,1.8,39,45.8,96
green_f9,12/25/91,7.3,3.1,3.82,12.6,96,630018,3.1,1.5,1.4,5.6,96,45.5,3.3,42,51.7,96
green_f9,12/26/91,129.1,107,4.19,260.51,96,11152278,6.6,2.7,2,11.5,96,47.1,3.5,41.7,53,96
green_f9,12/27/91,153.6,30.8,112.22,228.07,96,13268637,4,1.6,1.9,7,96,45.8,4.2,39.1,51.8,96
green_f9,12/28/91,91.7,24.9,54.68,152.94,96,7924077,4.4,2.4,1.2,9.9,96,38,1.3,36,39.9,96
green_f9,12/29/91,173.5,87.2,74.5,308.57,96,14993676,5.8,2.8,2.1,10.2,96,35,1.3,32.2,38.9,96
green_f9,12/30/91,216.2,54.3,137.25,302.91,96,18677484,4.7,2.3,2,7.9,96,37.2,2,34.4,40.5,96
green_f9,12/31/91,114,27.5,77.16,192.47,96,9850635,4.2,1.9,1.4,8.3,96,35.2,1.2,32.6,36.8,96
green_f9,1/1/92,50.5,22.1,31.72,108.45,96,4362696,3.2,0.9,1.9,4.8,96,34,0.7,32.4,34.8,96
green_f9,1/2/92,121.2,88.6,26.02,255.67,96,10471023,5.8,2.9,2.2,10.5,96,34.1,1.2,32.1,36.6,96
green_f9,1/3/92,71.7,22.9,49.38,143,96,6196896,3.9,1.7,1.3,7.2,96,36.4,0.5,35.3,37.2,96
green_f9,1/4/92,46.3,19.3,24.64,81.27,96,4001022,4.5,2.1,2,8.4,96,37.2,0.8,35.8,38.4,96
green_f9,1/5/92,77,59.6,22.03,178.39,96,6653376,6,3.3,2.1,11.7,96,36.7,1,34.7,38.2,96
green_f9,1/6/92,107.8,22.5,45.93,156.39,96,9310581,4.6,2.2,0.8,7.8,96,41.8,1.6,37.6,43.7,96
green_f9,1/7/92,76.9,61.2,8.21,167.1,96,6641766,5,3.4,0.8,11.3,96,42.9,2.4,30.6,48.5,96
green_f9,1/8/92,40,21.5,14.24,101.18,96,3453975,2.6,1.1,1,5.3,96,45.6,1.4,42.6,48.5,96
green_f9,1/9/92,7.4,2.3,4.19,13.71,96,635769,3.4,2.7,0.7,8.6,96,45.4,1.6,42.8,48.7,96
green_f9,1/10/92,4.7,1.8,2.58,10.59,96,410274,4.7,3,0.7,9.6,96,45.4,2.1,41.4,49,96
green_f9,1/11/92,11,2.8,4.19,15.91,96,947619,2.7,1.4,0.8,6.3,96,43.4,2.1,41.2,49.1,96
green_f9,1/12/92,3.4,1.4,1.53,6.51,96,293346,2.7,1.7,0.8,5.6,96,41.7,4,33.8,49.6,96
green_f9,1/13/92,1.2,0.4,0.65,1.98,96,105660,3.3,1.8,0.8,6.5,96,52,9.7,38.6,67.1,96
green_f9,1/14/92,5.2,3.6,2.27,16.51,96,453186,4.9,2.8,1.2,9.2,96,41,1.7,38.4,44.5,96
green_f9,1/15/92,10.9,3.3,3.51,18.26,96,945306,3.2,1.6,0.8,5.5,96,44.9,3.4,38.9,51.4,96
green_f9,1/16/92,11.5,8,1.53,33.22,96,995760,4,3.4,1,10.7,96,52.9,5.3,44.5,68.9,96
green_f9,1/17/92,8.2,3.9,3.82,21.38,96,711216,3.6,2.9,0.7,8.6,96,51.5,3.4,44.4,56.4,96
green_f9,1/18/92,5.6,2,2.58,11.1,96,484326,3.2,0.8,1.7,5.1,96,53.4,1.1,51.8,55.7,96
green_f9,1/19/92,2.9,0.6,1.76,3.82,96,248463,3.2,2,0.9,6.9,96,54.4,2.5,49.8,58,96
green_f9,1/20/92,3.4,0.7,2.27,4.93,96,294777,3,1,1.6,5.1,96,55.5,1.5,53.3,58.3,96
green_f9,1/21/92,1.9,0.4,1.25,2.58,96,166149,3.6,1.8,1.2,6.6,96,58.2,2.3,55.6,63.3,96
green_f9,1/22/92,3.6,2.1,1.76,12.09,96,310500,4.3,2.4,1,9,96,59.5,2,56,63,96
green_f9,1/23/92,7.4,3.6,3.2,14.78,96,635121,2.4,1.1,1,5,96,59.9,1.3,58,63.9,96
green_f9,1/24/92,2.9,0,2.92,2.92,1,2628,1,0,1,1,1,64.2,0,64.2,64.2,1
green_f9,12/14/93,5.6,1.5,2.01,8.3,45,226620,3.9,2.1,1.3,6.4,45,83.3,4.7,78.1,92.3,45
green_f9,12/15/93,7.1,0.8,3.68,8.3,54,345843,7,2.5,1.6,13.2,54,73.6,0.9,72.5,75.8,54
green_f9,12/16/93,5.2,2.1,1.76,12.8,76,352557,3.2,2.9,0.1,11.9,76,76.8,4.2,69.9,89.5,76
green_f9,12/17/93,12.2,3,4.11,15.12,52,569484,5.9,2.4,2,9.2,52,73.9,1.7,71.4,78,52
green_f9,12/18/93,9.3,2.8,2.92,12.8,51,429003,0.5,0.6,0,2,51,76,4.2,71.5,84,51
green_f9,12/19/93,6.1,0.8,4.11,6.85,30,164871,5.1,1.1,3.2,7.2,30,75.6,0.3,75.1,76.2,30
green_f9,12/20/93,5.4,1.2,2.92,6.85,34,165123,1.7,0.5,0.9,3,34,76.4,0.3,76,77,34
green_f9,12/21/93,4.3,0.9,3.28,5.1,4,15444,0.3,0,0.3,0.3,4,83,2.2,80.6,85.6,4
green_f9,12/25/93,3,0.4,2.29,3.68,13,34830,10.1,0,10,10.1,13,75.3,0.2,74.8,75.7,13
green_f9,12/26/93,3.1,0.8,2.61,3.68,2,5661,5,0,5,5,2,73.8,0.2,73.6,73.9,2
green_f9,12/27/93,5.5,1.7,2.61,7.56,46,229689,7.7,1.5,4,9.3,46,70.4,0.7,69.4,72.4,46
green_f9,12/28/93,5.6,1.3,2.61,7.56,38,192060,6.1,0.8,4.8,9.5,38,62.5,0.6,61.8,64.2,38
green_f9,12/30/93,6.4,1.8,3.68,9.91,60,346338,6.5,2.2,1.6,9.3,60,64.1,0.6,62.5,66.1,60
green_f9,12/31/93,10,4,2.61,15.12,84,759294,5.4,2.8,0.6,8.9,84,61,1.8,58.4,64.6,84
green_f9,1/1/94,14.4,5,6.85,19.17,96,1247778,6.1,3.2,1.3,10.4,96,56.8,1.7,54.5,60.1,96
green_f9,1/2/94,34.7,13.2,17.73,56.55,96,2995857,6.4,2.2,3.1,10.1,96,52.6,2,47.5,55.7,96
green_f9,1/3/94,55.2,8.9,38.85,67.79,96,4773240,4.4,1.4,2,6.3,96,41,3.1,37.5,49.4,96
green_f9,1/4/94,44.1,8.2,31.83,56.55,96,3809016,5.1,2.4,1.8,8.4,96,37.4,0.9,35.8,39.5,96
green_f9,1/5/94,49.3,7.1,38.85,63.85,96,4262823,5.1,2.4,1.7,8.5,96,35.7,1,33.4,37.7,96
green_f9,1/6/94,58.5,20.2,36.39,112.11,96,5050908,4.3,2,1.5,7.3,96,32.2,1,30.7,35.2,96
green_f9,1/7/94,59.5,8.9,50.01,95.4,96,5143374,4.1,2.4,1.1,7.7,96,27.1,1.2,25.5,30.8,96
green_f9,1/8/94,44.5,8.1,36.39,67.79,96,3847986,4.4,2.8,0.4,8.3,96,24.8,0.6,24,26.4,96
green_f9,1/9/94,58.3,11.5,44.17,85.38,96,5034888,4.3,2.4,0.9,8,96,28.2,3.3,24.4,34.1,96
green_f9,1/10/94,63,16.3,44.17,90.27,96,5445414,4.4,2.6,1.4,8.7,96,32.6,0.8,30.9,34.4,96
green_f9,1/11/94,48.7,8.4,38.85,76.2,96,4205205,3.9,2,0.1,7.7,96,29.7,0.9,27.9,32.1,96
green_f9,1/12/94,37.6,5.7,29.7,47.03,96,3246165,3.9,2.6,0.5,7.9,96,29.6,0.6,28.2,30.5,96
green_f9,1/13/94,28.1,5.5,20.7,44.17,96,2427975,3.6,2.3,0.1,7.6,96,30.1,0.5,29.2,31.2,96
green_f9,1/14/94,14.7,4.5,9.91,25.8,96,1271916,2.9,1.8,0.7,7,96,31.6,0.9,28,33.2,96
green_f9,1/15/94,7.6,1.4,4.11,9.91,84,574290,3.5,2,0.7,7.4,96,33.7,0.7,32.3,35.2,96
green_f9,1/16/94,7.3,1.3,4.59,9.91,58,383571,2.4,1.3,0,3.9,96,35.1,0.7,34.1,37.2,96
green_f9,1/17/94,,,,,0,,4.1,1.7,1.5,7.7,96,37.7,1.6,35.2,41,96
green_f9,1/18/94,5.1,0.7,3.68,6.23,42,193770,4,1.9,1.1,7.3,96,39.8,1.2,38.2,42.1,96
green_f9,1/19/94,7.1,1.7,4.11,9.91,78,496431,4,2.4,0.4,7.7,96,38.6,1.1,36.8,41,96
green_f9,1/20/94,4.1,0,4.11,4.11,1,3699,2.3,1.6,0,5,96,39.6,1.2,37.9,42.1,96
green_f9,1/21/94,,,,,0,,2.4,1.6,0.1,5.2,96,42.1,1.5,39.3,44.8,96
green_f9,1/22/94,,,,,0,,1.8,2,0,5.7,96,43.5,2.1,39.8,47.2,96
green_f9,1/23/94,,,,,0,,2.7,2.4,0,7.4,96,44.4,1.5,41.6,46.7,96
green_f9,1/24/94,,,,,0,,1.7,1.8,0,4.8,96,45.3,2.5,40.4,48.9,96
green_f9,1/25/94,,,,,0,,1.8,2,0,6.3,96,46.5,1.7,43,49.3,96
green_f9,1/26/94,,,,,0,,0.7,0.9,0,3.1,96,48,2,43.4,50.8,96
green_f9,1/27/94,,,,,0,,2,2,0,5.2,96,49.4,1.6,45.2,52.2,96
green_f9,1/28/94,,,,,0,,1.5,1.9,0,6.3,96,50.2,2.1,46.1,53.8,96
green_f9,1/29/94,,,,,0,,0.3,0.3,0,1,86,54.3,2.2,52.1,60.8,86
green_f9,12/11/94,,,,,0,,3.2,1.2,1.5,5.7,18,71.6,5.4,66.5,86.7,18
green_f9,12/12/94,,,,,0,,4.2,2.7,0.7,8.2,96,58.4,5,51.5,66.4,96
green_f9,12/13/94,17.7,1.1,15.32,19.6,34,541728,3.7,2.2,0.5,7.3,96,48.8,3.7,43.2,53,96
green_f9,12/14/94,16.4,3,10.59,19.6,96,1414467,1.8,1.4,0,4.3,96,56,11.2,44.1,74.9,96
green_f9,12/15/94,13.2,1.7,10.59,15.32,96,1139841,3.9,2.6,0.2,9.5,96,76.1,3.9,69.3,80.9,96
green_f9,12/16/94,10.1,1.5,8.07,13.34,96,870147,3.4,1.8,0.9,6.3,96,81.1,0.9,79.4,83.4,96
green_f9,12/17/94,8.2,0.7,7.28,8.89,96,706284,1.7,1.1,0.2,4.3,96,82.5,1.1,81,85,96
green_f9,12/18/94,5.4,0.7,4.5,7.28,96,469800,2.5,1.9,0,6.1,96,83.5,1.3,81.4,85.3,96
green_f9,12/19/94,7.8,2.6,3.91,11.5,96,671436,4.9,3.4,0.4,9.5,96,82.4,3,77.4,86.6,96
green_f9,12/20/94,11.2,3.5,6.54,16.34,96,963729,3.9,2.8,0.5,9.6,96,79.5,1.7,76.3,82.7,96
green_f9,12/21/94,8.2,1.5,5.15,10.59,96,708462,1.8,1.5,0,4.2,96,77.6,1.4,75.6,80.6,96
green_f9,12/22/94,3.5,0.7,2.8,5.15,96,300024,1.8,2,0,5.5,96,76.7,1.8,72.8,79.9,96
green_f9,12/23/94,1.4,0.5,0.71,2.8,96,118314,1.8,2.2,0.1,6.5,96,76.7,3.9,65.7,81.7,96
green_f9,12/24/94,4,2.2,1.47,8.07,96,347427,2.7,2.3,0.1,8.3,96,75.3,2.3,71.8,80.4,96
green_f9,12/25/94,6.8,2.8,3.34,12.4,96,587286,2.1,1.7,0.1,6.1,96,72.3,2,68,75.4,96
green_f9,12/26/94,4.6,0.8,2.32,6.54,96,393876,3.2,2.9,0.1,7.4,96,72.2,2,67.2,75.3,96
green_f9,12/27/94,4.2,1.5,2.32,6.54,96,365220,4.2,2.9,0.3,8.8,96,71.6,0.9,70.3,74,96
green_f9,12/28/94,4.4,0.6,3.91,5.83,96,382140,2.9,2.1,0.5,7.1,96,71.2,0.9,69.5,72.8,96
green_f9,12/29/94,3.4,1.7,0,7.28,96,295776,3.5,2.7,0,7.7,96,71.5,2.6,65.2,78.3,96
green_f9,12/30/94,9.1,4.4,2.32,14.33,96,788085,5.2,3.7,0,11.4,96,68.7,2.5,64.3,73,96
green_f9,12/31/94,7.8,2.1,5.83,12.4,96,675459,2.9,1.1,0.6,5.3,96,72.1,0.9,70.2,74,96
green_f9,1/1/95,12.9,5.7,5.15,21.92,96,1111644,5.7,3.6,0,10.6,96,71.1,2.2,67.4,74.3,96
green_f9,1/2/95,31.7,5.7,21.92,39.96,96,2739303,4.7,2.6,0.2,8.6,96,56.6,8.7,42.7,69.4,96
green_f9,1/3/95,19.6,10.1,5.83,38.37,96,1696581,0.6,0.7,0.1,2,96,44.3,2.6,41,51.1,96
green_f9,1/4/95,4,0.9,2.8,5.83,96,347679,2.5,2.3,0.2,6.5,96,44.3,2.6,36.1,47.2,96
green_f9,1/5/95,2.6,0.5,1.47,3.34,96,224298,4,2.7,0.5,8.5,96,48.6,1.7,46,52,96
green_f9,1/6/95,2.7,0.4,1.9,3.91,96,235197,3.1,1.5,1.2,6.6,96,52.5,1.5,49.8,56.1,96
green_f9,1/7/95,2.3,1.1,0.31,3.91,96,199530,6.1,3.5,1.9,11.4,96,56.5,2.2,50.6,59.8,96
green_f9,1/8/95,8.8,4.4,2.32,13.34,96,760419,7.1,2.6,2.9,10.3,96,52.8,2.6,48.7,58.1,96
green_f9,1/9/95,13.6,2.3,8.89,17.41,96,1176957,6.7,2.4,2.9,9.9,96,51.9,1,48.7,53.1,96
green_f9,1/10/95,14.3,2.4,8.07,18.49,96,1238364,5.6,2.7,0.9,9.3,96,50.4,1.8,46.2,53.7,96
green_f9,1/11/95,12.3,1.8,8.89,14.33,96,1058967,5.4,2.4,1.7,9.2,96,46.6,1.7,44.1,50.1,96
green_f9,1/12/95,7.7,3,3.91,14.33,96,661698,1.9,1.2,0.2,5.3,96,44,0.7,42.6,45.1,96
green_f9,1/13/95,2.4,0.7,1.08,3.91,96,207594,1.3,1.3,0.1,3.8,96,46.4,8.1,40.8,101.1,96
green_f9,1/14/95,0.6,0.4,0,1.47,96,50859,3.2,2.8,0,7.8,96,59.3,15,50.3,111.9,96
green_f9,1/15/95,0.1,0.3,0,0.71,96,10620,2.9,2.2,0.1,6.8,96,51.6,2.1,47.6,54.7,96
green_f9,1/16/95,0.6,0.5,0,1.47,96,51435,2.9,2.3,0.2,7,96,50.9,1.9,47.9,55.1,96
green_f9,1/17/95,4.4,4.4,0,12.4,96,381339,3.6,2.7,0.3,7.3,96,49.5,1.8,47.2,52.9,96
green_f9,1/18/95,9.1,0.9,7.28,10.59,96,785403,3.4,2.5,0.2,7.5,96,45.8,1.4,39.4,48.1,96
green_f9,1/19/95,6.6,1.4,4.5,9.74,96,569448,2.4,1.8,0.1,5.7,96,46.2,0.9,44.8,48.2,96
green_f9,1/20/95,4.5,1,2.8,6.54,96,384849,3.7,2.9,0.2,7.5,96,46.9,1.5,43,49.1,96
green_f9,1/21/95,6.7,1,5.15,8.07,96,581580,3.7,2.9,0.2,8,96,46.1,1.7,43.2,49.1,96
green_f9,1/22/95,5.2,1,3.34,7.28,96,449361,3.2,2.5,0.3,7.4,96,45.6,1.8,42.9,49.1,96
green_f9,1/23/95,4,1.1,1.9,5.83,96,344907,3.1,2.8,0.2,8.3,96,46.9,1.8,43.6,50,96
green_f9,1/24/95,2.4,0.7,0.31,3.34,96,205830,1.8,1.7,0.2,5.4,96,47.4,2.4,42,50,96
green_f9,1/25/95,0.1,0.2,0,1.08,96,6363,2.2,2.2,0.3,6.8,96,32.8,13,10,53,96
green_f9,1/26/95,0,0,0,0,89,0,1.4,1.2,0.3,3.8,89,22.5,8.2,8,52,89
green_f9,1/27/95,0,0,0,0,61,0,3.2,1.8,0.1,5.5,61,27.8,12.5,14,92,61
green_f9,1/28/95,0,0,0,0,37,0,0.6,0.2,0.3,1.2,37,30,17.7,10,92,37
green_f9,1/29/95,0,0,0,0,41,0,2.5,1.2,0.3,3.9,41,35.4,11.4,15,51,41
green_f9,1/30/95,0.2,0.3,0,1.08,55,7560,3,1.6,0.2,5,55,51.5,5.3,35,57,55
green_f9,1/31/95,0.1,0.2,0,0.71,63,4788,2.1,1.5,0.1,4.5,63,46.2,13,12,57,63
green_f9,2/1/95,0,0,0,0,1,0,0.2,0,0.2,0.2,1,24,0,24,24,1
green_f9,11/30/95,0.3,0.4,0,0.93,35,9459,2.5,1.5,0.1,4.5,35,85.7,5.9,79.2,100.4,26
green_f9,12/1/95,0.4,0.4,0,1.13,62,20556,3.2,2,0.1,5.9,62,70.5,1.5,69.1,73.7,38
green_f9,12/2/95,1.3,1.3,0,4.42,70,80829,4.4,2.8,0.1,9,70,64.5,2.1,62.3,70.5,50
green_f9,12/3/95,1.4,1.6,0,5.21,96,119547,3.2,3.1,0,8.6,96,58.8,3.5,55.8,67.7,69
green_f9,12/4/95,1,1.1,0,3.06,96,84240,2.9,2.7,0,7.3,96,56.3,3.2,52.8,64.4,84
green_f9,12/5/95,1.1,1.1,0,3.06,96,94779,2.3,2,0.1,5.6,96,54.6,3.9,50.4,63,86
green_f9,12/6/95,1.3,1.2,0,3.71,96,114606,3,2.6,0,9.4,95,51.5,2.3,48.9,56.7,96
green_f9,12/7/95,0.2,0.3,0,1.13,93,19800,1.5,1.4,0,3.8,93,50.5,2.4,45.6,53.5,49
green_f9,12/8/95,0.2,0.2,0,0.57,65,8820,4.1,2.3,0.5,7.8,65,54.9,5.8,47.8,83.2,48
green_f9,12/9/95,1.2,1.4,0,4.42,96,105894,4,3,0.1,8.7,96,52.5,5.3,40.5,67.7,74
green_f9,12/10/95,4.8,4.1,0.74,11.61,96,410994,4.6,2.4,0.9,8.3,96,48.1,2.4,44.1,54.7,96
green_f9,12/11/95,11.5,2.4,9.15,15.97,96,994221,5,2.1,2.3,9.5,96,41.8,1,40.3,44.2,96
green_f9,12/12/95,19.7,6.8,12.97,31.69,96,1704996,5.4,2.6,2.3,9.9,96,38,1.2,36.2,40.7,96
green_f9,12/13/95,25.7,2.7,21.15,31.69,96,2222505,6,3.1,2.1,12.1,96,32,1.6,30.1,36.1,96
green_f9,12/14/95,15.5,2.6,12.97,23.05,96,1338876,5.7,2.3,2.2,9.3,96,30.4,0.5,29.2,31.6,96
green_f9,12/15/95,21.5,6.3,11.61,29.39,96,1859661,6.2,2.6,2.7,10.8,96,30.3,0.6,29.3,31.5,96
green_f9,12/16/95,16.1,4.6,9.15,23.05,96,1389510,4.5,2.6,1,9.1,96,31.2,0.4,30.4,31.8,96
green_f9,12/17/95,17.1,7.2,9.15,34.09,96,1481247,2.5,1.7,0.1,6.3,96,32.1,1.8,25.6,34.4,96
green_f9,12/18/95,12,2.2,9.15,15.97,96,1032543,2.9,2.9,0.1,9.6,96,33.8,0.6,32.4,35,96
green_f9,12/19/95,9.4,3,5.21,14.44,96,812772,4.8,3.1,0.5,9.4,96,32.8,0.7,31.9,34.4,96
green_f9,12/20/95,13.2,5.2,6.09,21.15,96,1141155,6.5,3.5,1.5,11.3,96,30.7,0.8,28.9,32.6,96
green_f9,12/21/95,28.4,7.4,15.97,39.22,96,2454354,6.5,2.3,3,10.7,96,27.1,1.3,24.9,29.8,96
green_f9,12/22/95,25.2,5,19.34,36.61,96,2179818,4.9,2.3,2.3,9.4,96,26.6,0.3,26,27.4,96
green_f9,12/23/95,37.9,16,23.05,64,96,3271545,6.5,2.6,3,10.8,96,26.2,0.6,25.4,27.7,96
green_f9,12/24/95,68.9,6.9,57.14,78.69,96,5953662,4.9,1.7,3,7.9,96,25.8,1.3,23.7,27.9,96
green_f9,12/25/95,44.2,4.8,36.61,57.14,96,3820698,4.5,1.8,2,8.2,96,23.7,0.5,22.7,24.7,96
green_f9,12/26/95,27.4,6.5,21.15,44.77,96,2365740,4.1,1.6,1.7,6.6,96,24,0.5,22.8,25.2,96
green_f9,12/27/95,48.2,18.4,23.05,82.63,96,4166352,5,2.3,1.9,8.6,96,24.1,0.4,23,24.8,96
green_f9,12/28/95,60.6,8.7,50.74,78.69,96,5235534,4.7,2.5,1.5,9.6,96,21,0.9,19.6,23.5,96
green_f9,12/29/95,55.3,5.3,47.69,74.84,96,4779972,3.3,1.9,0.8,7.7,96,20.6,0.8,19.2,22,96
green_f9,12/30/95,34.7,18.6,21.15,86.68,96,3002166,4.5,3.4,0.4,10.1,96,21.6,0.6,20.2,23.3,96
green_f9,12/31/95,42.7,6.2,36.61,67.51,96,3690882,4.8,2.6,0.5,9.2,96,27.8,1.8,23.7,31.6,96
green_f9,1/1/96,42.7,3.2,39.22,47.69,25,960129,1.7,0.3,1.3,2.3,25,32.5,0.5,31.6,33.3,25
green_f9,1/2/96,,,,,0,,,,,,0,,,,,0
green_f9,1/3/96,,,,,0,,,,,,0,,,,,0
green_f9,1/4/96,,,,,0,,,,,,0,,,,,0
green_f9,1/5/96,,,,,0,,,,,,0,,,,,0
green_f9,1/6/96,0.3,0,0.28,0.28,9,2268,2.3,0.7,1,3,7,44.4,0.8,42.9,45.1,9
green_f9,1/7/96,,,,,0,,,,,,0,,,,,0
green_f9,1/8/96,,,,,0,,,,,,0,,,,,0
green_f9,1/9/96,,,,,0,,,,,,0,,,,,0
green_f9,1/10/96,6.7,5.8,0,15.97,46,278190,8,1.4,6.3,10.9,23,46.2,1.8,42.9,48.5,46
green_f9,1/11/96,24.7,6.4,14.44,34.09,96,2133360,6.4,2.5,2.6,10.1,96,43.3,3.3,39.6,49.1,96
green_f9,1/12/96,20.2,6,10.34,31.69,96,1743408,3.3,1.4,0.8,5.1,96,38.9,1.1,37.2,41,96
green_f9,1/13/96,5.9,1.9,3.71,11.61,96,506223,2.2,1.7,0.2,5.6,96,39.7,0.9,37.8,41,96
green_f9,1/14/96,1.8,0.5,1.13,3.06,96,156195,2.7,2.3,0,7.2,96,40.3,1.4,37.6,43.4,96
green_f9,1/15/96,1.1,0.2,0.74,1.98,96,97047,1.5,1.3,0.1,4.8,96,41.4,1.2,39,43.4,96
green_f9,1/16/96,0.5,0.4,0,1.53,96,44298,2.8,2.3,0.1,7.9,96,41.9,1.6,38.5,44.1,96
green_f9,1/17/96,0.7,0.5,0,1.53,96,59247,3.1,2.7,0,7.7,96,42.9,1.6,40.2,45.6,96
green_f9,1/18/96,1.1,0.5,0,2.49,96,90828,2.9,2.6,0.1,7.7,96,44.1,1.7,41.3,46.7,96
green_f9,1/19/96,1.6,0.3,1.13,2.49,96,140949,3,2.8,0,8.7,96,44,2,40.7,47.9,96
green_f9,1/20/96,0.9,0.4,0.28,1.98,96,79209,2.1,2.2,0,6.2,96,44.6,2.3,40.5,48.3,96
green_f9,1/21/96,0.5,0.2,0,0.74,66,26775,1.3,1.4,0,3.9,92,42.4,8.1,17.8,50.1,92
green_f9,1/22/96,0.7,0.3,0,1.13,41,24525,2.3,2.2,0,6,75,37.6,10.5,16.8,52.2,75
green_f9,1/23/96,,,,,0,,2.8,2.3,0,8.1,71,28.6,8.2,13.1,43,71
green_f9,1/24/96,,,,,0,,1,1.6,0,6.2,64,44.7,7,31.9,58.2,64
green_f9,1/25/96,,,,,0,,6.7,3.5,0.2,12,57,26.8,5.6,13.1,42.6,57
green_f9,1/26/96,0.9,0.4,0,1.53,57,47259,3.8,2.7,0.1,8.2,75,46.7,9.2,19.3,54,75
green_f9,1/27/96,1.1,1,0,5.21,55,53046,2.2,2.1,0,5.8,82,50.1,3.4,44.9,57.1,82
green_f9,1/28/96,0.9,0.9,0,2.49,9,7209,2.4,2.2,0,6.5,66,36.7,12,14.9,56.9,66
green_f9,1/29/96,,,,,0,,0.4,0.5,0,2.5,56,59.6,18.9,35.8,123.6,56
green_f9,1/30/96,,,,,0,,1.5,2.2,0,7.5,89,28.7,6.9,19.6,46.2,89
green_f9,1/31/96,1,0.1,0.74,1.13,8,7425,3.8,3,0,9.3,34,47.7,16.8,23.6,101.5,34
green_f9,2/1/96,1.2,0.4,0,2.49,93,97821,3,2.6,0,7.2,96,55.4,5.5,20.3,61.7,96
green_f9,2/2/96,6.1,3.4,2.49,14.44,96,529038,4.4,3,0.7,8.6,96,52.3,2,49.7,56.1,96
green_f9,2/3/96,14.6,1.5,11.61,15.97,96,1261422,3.7,2.6,0.2,7.5,96,44.7,2.5,42.5,50.1,96
green_f9,2/4/96,12.8,3.2,9.15,23.05,96,1101969,2.6,2.6,0,7.2,96,43.1,2.8,40.5,51.5,96
green_f9,2/5/96,7,1.7,5.21,10.34,96,606366,2.7,1.7,0.4,5.3,96,42.1,1,40.5,43.4,96
green_f9,2/6/96,5.7,1,4.42,7.02,96,491931,2.8,2.6,0,7.5,96,42.3,1.1,40.6,44.1,96
green_f9,2/7/96,7.6,1.8,3.71,12.97,96,659187,2.3,2.6,0,6.7,96,42.8,2.6,39.1,48.7,96
green_f9,2/8/96,8.1,3.3,3.06,14.44,96,701757,0.6,1.2,0,4.5,96,42.7,2.2,38.2,47.9,96
green_f9,2/9/96,2.5,1.1,0,5.21,69,155835,1,1.2,0,3.6,92,42.5,3.6,35.6,48.1,92
green_f9,2/10/96,0.5,0.4,0,1.13,14,6795,0,0,0,0,15,49.2,1.7,46.4,52.3,15
green_f9,12/1/96,0.1,0.2,0,0.76,27,1404,2.3,1.7,0.1,5.1,27,162.4,0.7,160.5,163.3,27
green_f9,12/2/96,0.5,0.5,0,1.16,36,17028,0,0.1,0,0.4,36,162.3,6.6,133.5,169.5,36
green_f9,12/3/96,1.1,0.9,0,3.45,72,74313,2.4,3,0,7.9,72,155.3,10.5,137.3,170.6,72
green_f9,12/5/96,6.5,1.8,1.16,9.91,64,374679,6,2,2.2,8.5,64,138.9,5.9,123.6,147.2,64
green_f9,12/6/96,2.7,0.9,0.76,5.3,96,229374,2.6,2,0,6.4,96,125.8,5.4,119.3,135.6,96
green_f9,12/7/96,1,0.5,0,2.92,96,84834,3,3.1,0,9.2,96,115.4,5.5,105.7,126.2,96
green_f9,12/8/96,2.2,1,0.76,4.02,96,190764,2.8,2.7,0,7.5,96,106.6,3,102.4,113.2,96